Location: Tel Aviv
(32.0670°N, 34.7670°E)
Time: 12:21:57
(UTC+03:00)

Explorer 11/Cluster Stage 4 - Pass Details

Date: 17 September 2024
Orbit: 464 x 1208 km, 28.8° (Epoch: 05 October)

Event Time Altitude Azimuth Distance (km) Brightness Sun altitude
Rises 06:01:42 0° 239° (WSW) 3,237 - -6.0°
Exits shadow 06:02:31 - 237° (WSW) 2,949 9.0 -5.8°
Reaches altitude 10° 06:04:04 10° 232° (SW) 2,424 8.6 -5.5°
Maximum altitude 06:09:40 45° 161° (SSE) 1,274 7.8 -4.3°
Drops below altitude 10° 06:16:25 10° 91° (E) 2,922 11.5 -2.9°
Sets 06:19:32 0° 86° (E) 3,969 14.2 -2.2°
